Temperature
14 15 14 14 14 15 15 16 16 18 17 17 16 15 16 17 17 15 14 13 12 11 9 9 8 8 8 8 8 7 7 6 5 4 4 4 3 2 2 2 1 1 1 1
15 16 16 15 15 15 15 16 16 16 17 18 17 18 17 16 16 15 14 13 12 10 9 8 8 7 7 7 7 6 6 5 4 4 3 3 2 2 1 1 1 1 0 -1
14 15 15 15 15 15 15 15 16 15 16 17 16 16 16 17 16 15 14 12 11 10 9 8 7 7 6 6 6 5 5 4 3 3 3 2 1 1 1 0 0 -0 -1 -2
13 14 12 15 15 16 16 16 16 17 17 16 15 14 15 16 15 14 13 12 11 10 9 8 7 6 5 5 5 4 4 3 3 2 2 1 0 0 0 -0 -0 -1 -2 -2
11 13 13 15 14 15 16 16 17 16 16 13 12 11 10 12 12 12 11 10 9 9 8 7 6 5 5 4 4 3 3 2 2 1 1 0 0 0 -0 -1 -1 -2 -2 -3
11 12 12 14 14 14 15 15 15 16 14 11 12 10 8 9 10 10 9 9 8 8 7 6 5 5 4 3 3 2 2 2 1 0 -0 -0 -0 -0 -1 -2 -2 -2 -3 -4
10 11 12 13 13 14 13 13 13 14 13 11 11 10 8 8 9 9 8 8 8 7 6 6 5 4 3 3 2 2 1 1 0 -0 -0 -0 -1 -1 -2 -2 -2 -3 -4 -5
10 10 11 12 12 13 11 12 13 13 12 9 8 8 7 8 8 8 7 7 7 6 6 4 4 3 2 2 1 1 0 -0 -0 -0 -1 -1 -2 -2 -2 -3 -4 -5 -6 -6
11 11 11 12 12 11 12 12 11 11 10 9 7 7 7 7 7 7 7 6 6 5 4 3 3 2 2 1 0 -0 -0 -0 -0 -1 -1 -2 -3 -3 -3 -4 -5 -6 -7 -8
11 10 10 10 10 11 11 11 10 10 9 9 8 7 7 6 6 6 6 5 4 4 3 3 2 1 0 0 -0 -0 -1 -1 -1 -1 -2 -3 -3 -3 -4 -6 -7 -7 -8 -8
11 10 9 9 9 10 10 9 9 9 9 8 8 7 6 6 5 5 5 4 3 2 2 1 1 -0 -0 -0 -1 -1 -1 -1 -2 -3 -3 -3 -3 -4 -6 -7 -8 -8 -8 -8
11 10 9 9 9 9 9 8 8 8 8 7 8 7 6 6 5 5 4 3 2 1 0 0 -0 -0 -1 -1 -1 -1 -2 -2 -3 -3 -3 -4 -4 -5 -6 -7 -8 -8 -9 -9
13 12 12 10 8 8 8 8 8 8 8 7 7 6 6 6 5 4 3 2 1 0 -0 -0 -1 -1 -1 -1 -1 -2 -3 -3 -3 -4 -4 -5 -6 -7 -7 -7 -8 -9 -9 -9
11 11 8 8 7 7 7 8 8 7 7 7 6 6 5 5 4 3 2 1 0 -0 -1 -1 -1 -2 -1 -2 -2 -3 -3 -3 -4 -4 -5 -6 -7 -8 -9 -9 -9 -9 -10 -10
10 10 8 7 6 6 8 7 7 7 6 6 5 5 4 4 3 2 1 -0 -1 -1 -1 -1 -2 -2 -2 -3 -3 -3 -4 -4 -5 -5 -6 -7 -8 -9 -9 -10 -10 -10 -10 -10
8 8 7 6 6 6 7 7 7 6 6 5 4 4 3 3 2 1 -0 -1 -1 -1 -2 -2 -2 -3 -3 -3 -3 -4 -4 -5 -6 -6 -7 -8 -9 -9 -10 -10 -10 -11 -11 -11
7 5 5 5 5 6 6 6 6 6 5 4 4 3 2 2 1 0 -1 -1 -2 -2 -2 -3 -3 -3 -4 -4 -4 -5 -5 -6 -6 -7 -8 -9 -9 -10 -10 -10 -11 -11 -11 -11
10 9 8 7 6 6 6 6 5 5 4 3 2 2 2 1 1 -0 -1 -2 -2 -3 -3 -3 -4 -4 -4 -4 -5 -6 -6 -6 -7 -8 -9 -9 -10 -10 -10 -11 -11 -11 -11 -11
8 7 6 6 6 6 5 5 4 4 3 2 2 2 1 1 -0 -1 -2 -3 -3 -3 -3 -4 -4 -4 -5 -5 -6 -6 -7 -7 -8 -9 -9 -10 -10 -10 -11 -11 -11 -12 -12 -12
5 5 5 5 5 5 5 4 3 3 2 2 1 1 0 -0 -1 -2 -3 -4 -4 -4 -4 -4 -5 -5 -6 -6 -7 -7 -7 -8 -9 -9 -10 -10 -10 -11 -11 -11 -12 -12 -12 -13
5 5 5 5 4 4 4 3 3 2 1 1 0 -0 -1 -2 -2 -3 -3 -4 -4 -4 -5 -5 -6 -6 -7 -7 -7 -7 -8 -8 -9 -10 -10 -11 -11 -11 -11 -11 -11 -12 -13 -14
5 5 5 5 4 3 2 2 2 1 1 0 -1 -1 -2 -2 -3 -3 -4 -4 -5 -5 -6 -6 -7 -7 -7 -7 -7 -8 -9 -9 -10 -10 -10 -11 -11 -11 -11 -11 -12 -12 -13 -13
5 5 4 4 3 2 2 1 1 0 -0 -1 -1 -2 -2 -3 -4 -4 -5 -5 -6 -6 -7 -7 -7 -7 -7 -8 -8 -9 -9 -10 -10 -11 -11 -11 -11 -12 -12 -12 -12 -13 -13 -13
4 4 3 3 2 2 1 0 -0 -1 -1 -2 -2 -3 -3 -4 -5 -5 -6 -6 -7 -7 -7 -7 -7 -8 -8 -8 -9 -9 -10 -10 -11 -11 -12 -12 -12 -12 -12 -12 -12 -13 -12 -12
3 3 2 2 1 0 -0 -1 -1 -2 -2 -3 -3 -4 -5 -5 -6 -6 -6 -7 -7 -7 -7 -8 -8 -8 -9 -9 -10 -10 -11 -11 -11 -12 -12 -12 -12 -12 -12 -12 -12 -12 -12 -12
2 2 1 1 0 -1 -1 -2 -2 -3 -3 -4 -5 -5 -6 -6 -6 -7 -7 -7 -7 -8 -8 -8 -9 -9 -10 -10 -10 -11 -11 -11 -12 -12 -12 -12 -12 -12 -12 -12 -12 -12 -12 -12
1 1 -0 -1 -2 -2 -2 -2 -3 -4 -4 -5 -6 -6 -6 -7 -7 -7 -8 -8 -8 -9 -9 -9 -10 -10 -10 -11 -11 -11 -12 -12 -12 -12 -12 -12 -12 -12 -12 -12 -12 -12 -11 -11
Wind_Speed
4 11 12 11 10 7 5 3 1 1 7 10 11 11 11 11 12 15 15 14 13 12 11 10 10 9 9 9 9 8 7 8 7 4 3 2 3 4 5 6 7 8 8 9
4 6 11 12 13 12 10 8 7 7 4 5 9 10 10 11 12 13 14 13 12 12 11 11 10 10 9 9 8 7 8 7 5 3 2 2 3 4 6 7 8 8 8 9
3 4 4 5 11 11 10 9 9 10 7 3 7 9 9 10 10 10 11 11 11 11 11 10 10 10 9 9 8 7 8 6 4 2 2 2 4 5 6 7 7 8 9 9
1 4 4 3 2 5 10 11 11 7 2 5 9 11 10 8 11 11 11 10 10 10 10 10 10 10 9 9 8 7 7 5 4 1 1 3 5 6 6 7 7 8 9 10
0 1 4 2 2 2 4 5 7 9 7 11 15 10 10 11 13 12 11 10 10 11 12 10 10 10 10 9 8 7 6 4 3 2 2 4 5 6 6 7 8 9 9 10
0 1 2 2 2 4 2 1 4 2 10 15 10 6 5 7 12 13 12 11 11 12 12 11 10 10 9 8 7 6 5 3 2 1 3 4 5 6 6 7 8 9 10 10
2 2 4 3 2 1 3 2 4 3 10 11 5 6 12 12 12 12 11 11 11 11 10 9 9 9 9 8 7 6 4 2 1 1 3 4 5 5 7 8 9 9 11 10
5 5 7 5 5 3 3 2 4 9 13 14 15 15 15 12 12 11 10 10 10 10 9 8 8 9 9 7 6 5 3 1 1 2 4 4 5 6 7 8 9 9 9 10
8 7 2 5 5 4 5 7 8 10 14 16 15 13 12 10 10 9 9 8 8 10 9 7 7 8 8 7 5 4 1 1 3 4 5 5 6 7 7 7 7 8 8 10
6 4 5 6 5 3 8 10 11 12 12 13 14 12 11 10 9 8 7 7 7 9 8 7 7 7 7 7 5 3 2 4 4 5 5 6 5 6 6 6 7 8 8 10
4 6 6 5 6 8 12 13 13 12 11 12 13 12 10 9 8 7 7 6 6 7 8 8 7 7 7 6 4 4 4 4 5 5 5 6 6 6 8 6 10 12 8 8
7 11 8 7 10 11 13 13 15 15 13 11 12 11 10 8 7 7 7 6 6 7 9 8 7 7 6 5 5 4 3 4 4 4 5 6 7 8 12 14 20 21 20 19
4 8 7 13 13 11 12 13 13 13 13 12 10 10 10 8 7 6 7 7 7 8 8 8 7 6 6 5 4 3 3 4 4 5 5 6 7 9 10 12 16 19 21 22
13 14 11 10 10 13 15 16 15 14 12 11 10 9 9 8 7 8 7 7 8 8 8 7 6 5 6 5 2 2 4 5 6 4 5 6 7 8 8 10 12 10 14 21
7 7 11 14 14 14 13 14 15 12 11 10 9 9 8 8 8 8 8 8 8 8 7 6 5 5 5 4 1 3 4 4 4 4 5 6 7 7 7 9 9 11 10 13
10 13 16 16 15 12 12 13 14 11 10 9 8 8 8 8 9 8 8 7 7 6 6 6 4 4 5 2 2 3 4 9 9 6 5 6 6 7 7 8 9 10 10 10
14 13 13 15 13 12 11 11 11 10 9 9 9 9 9 8 8 7 6 6 6 6 6 5 4 5 3 1 2 3 4 7 12 8 5 6 6 7 7 8 9 10 9 13
9 12 15 18 16 15 13 12 11 10 9 9 9 8 8 7 6 6 6 6 6 5 4 4 5 4 2 3 3 3 4 5 6 6 6 6 7 7 7 8 9 10 10 13
16 17 15 14 14 15 13 12 10 9 9 9 8 7 7 6 6 7 7 6 4 3 4 5 5 3 3 4 4 4 5 6 6 6 6 11 10 7 8 8 9 9 11 12
16 17 17 15 14 15 14 12 11 10 8 8 8 8 8 7 7 7 6 4 4 4 5 5 3 3 3 4 6 4 6 7 6 6 6 6 7 7 8 9 10 11 12 12
18 18 18 17 15 13 12 11 11 10 8 8 8 8 8 7 6 6 5 4 4 5 5 3 2 2 2 5 8 5 6 5 5 6 6 7 7 7 8 10 12 12 12 12
16 17 17 16 15 13 10 9 10 10 9 9 9 8 8 7 7 6 7 5 5 5 4 3 1 3 7 8 5 6 6 5 5 5 6 6 6 7 9 10 10 11 11 12
14 14 14 14 14 12 11 10 10 10 9 8 8 8 8 7 5 5 5 4 4 5 3 3 5 8 11 6 5 6 6 6 6 6 6 6 6 8 9 10 10 10 10 11
14 13 13 13 13 13 12 9 10 10 10 9 9 8 7 6 6 6 5 4 4 4 3 6 10 11 11 5 5 6 6 6 6 6 7 7 6 7 9 10 10 9 10 11
14 13 13 12 11 9 10 10 10 9 10 9 9 9 8 6 5 4 3 3 5 6 4 7 11 12 7 5 6 6 6 7 8 8 6 6 7 8 9 9 9 10 10 10
12 11 9 9 8 8 7 7 7 7 7 8 7 6 5 5 5 4 3 4 6 7 5 4 6 8 5 6 6 7 7 8 9 8 7 8 9 9 9 9 10 10 10 9
12 10 9 9 8 7 7 8 8 7 6 7 6 4 4 4 4 4 4 4 4 4 5 5 5 5 6 6 7 7 6 6 7 8 8 8 8 8 9 10 10 9 9 9
Wind_Direction
248 152 154 163 184 211 232 257 333 93 143 173 165 154 148 145 145 147 155 158 157 154 152 147 142 137 130 122 119 121 114 102 94 85 73 45 17 349 324 309 301 293 294 296
62 118 157 169 189 199 211 220 242 283 301 75 110 122 134 148 155 160 160 157 151 147 146 146 141 134 125 122 123 123 114 109 108 85 45 23 348 312 300 296 295 297 300 301
75 89 102 189 201 201 208 215 216 231 240 126 112 120 136 147 148 148 147 142 142 144 142 139 133 129 128 124 122 118 113 110 106 79 24 343 313 305 304 306 307 308 306 307
65 136 187 204 31 212 211 217 212 220 160 120 115 78 55 89 114 109 115 121 125 123 119 118 117 119 116 118 119 115 113 115 116 95 349 324 314 312 314 313 310 308 305 300
63 232 251 171 75 7 215 227 206 205 165 114 108 77 42 42 80 91 94 104 107 110 111 109 112 114 114 115 115 116 112 109 100 56 346 322 318 320 318 314 310 304 300 301
227 208 238 108 51 346 45 208 6 191 150 140 123 127 142 94 82 80 78 88 99 104 106 109 113 118 121 123 120 117 115 105 84 16 309 310 317 318 314 311 302 303 303 303
176 247 291 110 127 52 142 187 333 35 126 134 95 111 121 107 94 91 91 93 99 104 108 115 123 124 118 115 118 120 114 94 41 312 320 321 320 311 305 300 299 303 307 310
171 205 242 156 148 152 141 134 69 82 99 102 102 103 105 104 104 104 104 105 108 109 109 114 119 114 113 119 120 119 118 130 313 343 338 324 309 299 296 299 305 310 313 315
190 205 140 118 109 111 131 112 90 92 107 115 112 112 114 115 116 116 117 116 114 115 115 110 103 113 121 120 118 117 118 9 4 354 327 307 299 296 300 304 309 312 313 315
172 162 154 124 111 136 119 107 100 108 113 115 116 118 118 119 121 124 126 127 127 128 129 116 97 94 109 116 115 102 41 16 358 328 308 308 304 304 309 312 310 308 309 311
153 125 125 157 158 126 106 103 100 93 97 110 113 111 112 113 120 129 134 135 135 140 135 126 123 116 110 112 98 55 28 3 332 315 312 310 307 306 313 301 307 315 310 309
195 180 172 173 151 128 122 119 115 107 93 91 104 108 105 102 103 115 123 124 122 117 118 124 128 123 116 102 76 47 10 332 316 315 316 314 313 311 312 316 320 322 322 318
125 140 127 127 129 125 123 120 115 111 112 104 95 97 102 100 93 96 105 112 115 115 117 118 116 116 114 99 74 32 325 309 308 314 314 315 317 316 316 319 319 320 321 322
103 102 104 122 123 116 112 107 103 99 99 100 99 95 97 99 96 95 100 105 106 105 108 112 114 113 109 95 69 333 312 311 315 309 315 315 309 307 310 316 319 317 321 323
76 105 125 117 109 108 109 111 105 102 99 93 93 96 102 106 105 101 96 94 97 102 110 112 106 105 105 94 27 319 315 309 307 306 302 297 298 302 305 307 311 315 316 321
97 98 111 115 119 120 120 116 113 113 110 108 101 96 95 97 101 102 102 106 114 126 126 117 111 102 99 78 352 331 322 316 315 301 290 293 298 304 307 308 311 311 313 316
128 130 130 131 131 130 122 114 117 118 115 110 108 104 100 100 104 110 111 106 101 106 111 115 112 104 97 40 354 337 322 314 312 309 299 299 301 301 303 306 307 308 309 316
137 141 147 144 138 125 110 106 107 106 106 110 114 116 114 113 120 131 127 111 98 99 108 110 103 88 38 12 18 337 309 296 295 294 294 298 305 303 307 306 308 311 315 319
130 132 130 123 121 118 115 111 106 104 108 115 115 112 108 101 101 115 118 120 135 151 137 115 95 48 8 353 345 309 295 292 291 293 299 313 317 306 306 309 312 315 317 321
119 116 112 108 108 112 112 110 108 104 102 104 102 99 97 95 98 105 112 108 97 111 109 86 50 18 18 341 327 295 288 288 295 305 308 307 306 308 312 318 320 318 319 321
119 116 112 110 105 102 105 109 109 107 100 96 98 102 105 105 104 107 107 106 86 76 69 48 16 22 358 321 318 301 295 300 308 310 309 309 309 313 318 318 316 315 317 320
121 118 115 112 107 98 88 89 97 100 96 88 88 97 105 105 99 86 75 86 94 57 29 357 5 345 324 326 313 304 306 311 310 306 304 305 309 311 311 309 309 311 315 317
118 115 113 111 109 103 89 82 85 89 91 94 96 98 98 94 85 92 91 67 65 31 3 332 334 330 330 335 317 312 313 309 305 302 301 300 299 301 304 306 308 311 313 313
109 105 104 105 105 99 90 81 84 91 92 86 79 78 85 90 74 63 79 71 34 12 352 333 337 334 336 335 313 308 306 305 301 294 289 286 288 297 304 306 306 309 311 311
100 100 101 102 98 102 111 113 106 101 96 90 79 68 63 68 85 80 64 38 6 6 353 341 337 335 335 312 309 308 307 300 297 298 295 303 301 301 302 303 307 311 310 308
99 97 93 93 105 119 123 118 110 106 104 99 87 74 70 64 64 59 39 15 360 351 345 324 321 323 316 308 304 302 300 303 308 309 303 300 299 302 305 308 308 307 306 307
93 94 93 91 88 93 98 100 100 96 100 107 100 82 71 59 50 35 19 6 352 339 325 319 316 311 306 302 300 297 296 297 299 303 304 302 301 302 303 303 302 302 304 305
Height
1377 1376 1382 1387 1391 1391 1393 1394 1399 1396 1400 1400 1400 1402 1406 1410 1415 1421 1427 1433 1438 1442 1446 1450 1452 1455 1457 1459 1461 1463 1465 1467 1468 1469 1469 1468 1467 1465 1463 1460 1458 1455 1451 1447
1377 1375 1379 1386 1388 1391 1394 1396 1399 1399 1398 1393 1394 1399 1405 1410 1415 1420 1425 1430 1436 1441 1444 1447 1449 1452 1454 1456 1459 1461 1463 1465 1466 1466 1466 1465 1464 1462 1459 1457 1454 1451 1447 1442
1386 1381 1382 1391 1386 1388 1392 1392 1397 1402 1399 1396 1398 1401 1404 1408 1414 1419 1424 1429 1434 1439 1442 1445 1447 1449 1452 1454 1456 1459 1461 1462 1463 1464 1464 1462 1460 1458 1456 1454 1451 1447 1442 1438
1391 1390 1403 1387 1379 1379 1384 1387 1390 1392 1394 1395 1399 1404 1407 1409 1413 1419 1424 1429 1433 1438 1441 1444 1446 1448 1450 1452 1455 1457 1459 1460 1461 1461 1460 1459 1457 1455 1453 1450 1446 1442 1437 1431
1398 1394 1392 1383 1382 1381 1383 1385 1384 1388 1392 1397 1400 1405 1412 1413 1414 1419 1424 1428 1432 1436 1439 1441 1443 1446 1448 1451 1453 1455 1457 1458 1458 1458 1457 1456 1454 1452 1449 1446 1441 1437 1432 1426
1399 1400 1401 1390 1384 1382 1384 1390 1385 1384 1389 1396 1399 1410 1417 1417 1418 1421 1425 1428 1431 1434 1437 1440 1442 1445 1447 1449 1452 1454 1455 1456 1456 1455 1454 1452 1451 1449 1446 1442 1437 1432 1426 1421
1401 1402 1393 1387 1384 1385 1394 1395 1389 1386 1388 1395 1399 1405 1412 1416 1420 1423 1426 1429 1432 1434 1436 1439 1441 1444 1446 1448 1450 1452 1453 1453 1452 1452 1451 1450 1448 1445 1441 1436 1431 1426 1421 1416
1399 1403 1400 1386 1386 1389 1392 1391 1390 1390 1393 1398 1403 1408 1413 1417 1421 1424 1427 1430 1432 1434 1436 1439 1441 1443 1444 1447 1449 1450 1450 1450 1450 1449 1448 1447 1444 1441 1437 1432 1426 1421 1415 1410
1388 1389 1383 1382 1384 1387 1389 1391 1393 1395 1398 1402 1406 1411 1416 1420 1423 1426 1428 1431 1433 1434 1436 1438 1440 1442 1444 1446 1447 1448 1448 1448 1448 1447 1446 1444 1440 1436 1432 1427 1422 1417 1412 1406
1380 1382 1382 1383 1385 1387 1389 1391 1394 1398 1401 1404 1409 1414 1418 1421 1424 1427 1429 1431 1432 1434 1435 1437 1439 1441 1443 1444 1445 1446 1446 1446 1446 1445 1443 1440 1437 1433 1428 1423 1418 1413 1408 1402
1376 1380 1382 1384 1385 1387 1389 1392 1396 1400 1404 1407 1411 1415 1419 1422 1424 1427 1429 1430 1431 1433 1434 1436 1439 1440 1442 1443 1444 1444 1444 1444 1443 1441 1439 1435 1432 1428 1424 1420 1416 1412 1406 1401
1371 1372 1376 1379 1383 1386 1388 1393 1397 1401 1406 1410 1413 1416 1419 1422 1424 1426 1427 1429 1430 1432 1434 1436 1438 1439 1441 1442 1443 1443 1443 1442 1440 1438 1435 1431 1426 1422 1419 1416 1412 1408 1403 1399
1364 1367 1371 1375 1382 1386 1390 1394 1399 1403 1407 1411 1414 1417 1419 1422 1423 1425 1426 1428 1429 1431 1433 1435 1437 1439 1440 1441 1441 1441 1440 1439 1437 1434 1430 1426 1422 1417 1412 1408 1406 1403 1398 1394
1364 1367 1374 1378 1383 1387 1391 1395 1400 1405 1408 1411 1414 1417 1419 1421 1423 1424 1426 1427 1429 1431 1433 1435 1437 1438 1439 1439 1439 1438 1437 1435 1433 1430 1426 1422 1418 1414 1410 1404 1399 1395 1392 1388
1365 1367 1371 1378 1383 1387 1392 1397 1401 1405 1409 1412 1415 1418 1420 1421 1422 1424 1425 1427 1429 1431 1433 1434 1436 1436 1437 1437 1436 1435 1434 1432 1429 1425 1422 1418 1414 1410 1406 1402 1397 1392 1386 1381
1365 1369 1373 1377 1382 1388 1393 1398 1402 1406 1410 1413 1416 1418 1419 1421 1422 1424 1425 1427 1429 1430 1432 1433 1434 1435 1435 1435 1434 1432 1430 1428 1425 1421 1418 1414 1410 1407 1403 1398 1394 1388 1383 1378
1363 1369 1373 1378 1383 1389 1394 1398 1402 1407 1410 1413 1416 1418 1420 1421 1423 1424 1425 1427 1428 1430 1431 1432 1433 1433 1433 1432 1431 1429 1426 1424 1421 1417 1414 1410 1407 1403 1399 1395 1390 1385 1380 1375
1362 1365 1370 1375 1382 1388 1394 1399 1404 1407 1410 1413 1416 1418 1419 1421 1422 1424 1425 1427 1428 1429 1430 1431 1431 1431 1430 1429 1427 1425 1422 1420 1417 1414 1410 1407 1403 1400 1396 1391 1386 1381 1375 1371
1363 1367 1373 1379 1384 1389 1395 1400 1404 1407 1411 1413 1415 1417 1418 1420 1422 1423 1425 1426 1427 1428 1429 1429 1429 1428 1427 1426 1424 1421 1418 1415 1412 1410 1407 1403 1399 1395 1391 1387 1382 1377 1372 1367
1364 1369 1375 1381 1387 1391 1396 1400 1404 1407 1410 1412 1414 1416 1418 1420 1421 1423 1424 1425 1426 1427 1427 1427 1426 1426 1424 1422 1420 1417 1414 1411 1409 1406 1402 1399 1395 1391 1387 1383 1378 1373 1368 1364
1366 1371 1377 1383 1388 1393 1397 1401 1405 1408 1410 1412 1414 1416 1418 1419 1421 1422 1423 1424 1425 1426 1425 1425 1424 1422 1421 1418 1416 1413 1411 1408 1405 1402 1398 1395 1391 1387 1383 1378 1374 1369 1365 1361
1369 1375 1380 1385 1390 1395 1399 1402 1405 1408 1410 1412 1414 1416 1417 1419 1420 1422 1422 1424 1424 1424 1424 1423 1421 1419 1417 1415 1412 1409 1407 1404 1401 1397 1394 1391 1387 1383 1378 1374 1370 1366 1362 1357
1373 1378 1383 1387 1392 1396 1400 1403 1406 1408 1410 1412 1414 1415 1417 1418 1419 1421 1422 1423 1423 1423 1422 1420 1418 1416 1414 1411 1408 1405 1402 1399 1396 1393 1390 1386 1383 1379 1374 1370 1366 1362 1358 1354
1376 1381 1385 1390 1394 1397 1401 1404 1406 1409 1411 1412 1413 1415 1416 1417 1419 1420 1421 1422 1421 1421 1419 1417 1415 1413 1410 1407 1404 1401 1398 1395 1392 1388 1385 1382 1378 1374 1370 1366 1362 1358 1354 1350
1379 1383 1388 1392 1395 1399 1402 1405 1407 1409 1410 1411 1413 1414 1416 1418 1420 1420 1421 1420 1419 1418 1416 1414 1412 1409 1406 1403 1400 1397 1393 1390 1387 1384 1381 1377 1373 1369 1365 1361 1358 1354 1350 1347
1382 1386 1390 1394 1397 1400 1403 1405 1407 1408 1410 1411 1413 1415 1417 1418 1419 1419 1418 1417 1416 1414 1412 1410 1408 1405 1402 1399 1396 1392 1389 1386 1383 1379 1375 1372 1368 1364 1360 1357 1353 1350 1346 1343
1385 1388 1392 1395 1398 1401 1403 1405 1407 1408 1411 1413 1414 1416 1417 1418 1417 1416 1415 1414 1413 1411 1409 1406 1403 1400 1397 1394 1391 1388 1384 1381 1377 1373 1369 1366 1362 1358 1355 1351 1348 1345 1342 1340